Perry, FL

5:33 AM EST on December 16, 2017 (GMT -0500)
Perry

Weather History for K40J - July, 2012

Change the Weather History Date:

Wednesday, July 25, 2012

  Actual Average (KVLD) Record (KVLD)
Temperature  
Mean Temperature 83 °F -  
Max Temperature 93 °F 90 °F 101 °F (2012)
Min Temperature 73 °F 69 °F 68 °F (2000)
Cooling Degree Days 18    
Growing Degree Days 33 (Base 50)    
Moisture  
Dew Point 74 °F    
Average Humidity 83    
Maximum Humidity 94    
Minimum Humidity 54    
Precipitation  
Precipitation 0.99 in - - ()
Sea Level Pressure  
Sea Level Pressure 29.98 in    
Wind  
Wind Speed 2 mph (SSW)    
Max Wind Speed 14 mph    
Max Gust Speed 21 mph    
Averages and records for this station are not official NWS values.
T = Trace of Precipitation, MM = Missing Value Source: NWS Daily Summary

Daily Weather History Graph

Daily Weather History Graph

Search for Another Location

Airport or City:

Trip Planner

Search our weather history database for the weather conditions in past years. The results will help you decide how hot, cold, wet, or windy it might be!

Date:

Astronomy

Jul. 25, 2012 Rise Set
Actual Time 6:49 AM EDT 8:32 PM EDT
Civil Twilight 6:22 AM EDT 8:58 PM EDT
Nautical Twilight 5:51 AM EDT 9:29 PM EDT
Astronomical Twilight 5:17 AM EDT 10:03 PM EDT
Moon 1:16 PM EDT (7/25) No Moon Set
Length of Visible Light 14h 35m
Length of Day
13h 42m
Waxing Crescent, 42% of the Moon is Illuminated
Jul 25
Waxing Crescent
Jul 26
First Quarter
Aug 1
Full
Aug 9
Last Quarter
Aug 17
New

Hourly Weather History & Observations

Time (EDT) Temp. Heat Index Dew Point Humidity Pressure Visibility Wind Dir Wind Speed Gust Speed Precip Events Conditions
12:53 AM 75.9 °F - 73.0 °F 91% 30.01 in - Calm Calm - N/A   Unknown
1:53 AM 75.9 °F - 73.0 °F 91% 29.99 in - Calm Calm - N/A   Unknown
2:53 AM 75.0 °F - 72.0 °F 90% 29.98 in - Calm Calm - N/A   Unknown
3:53 AM 75.0 °F - 72.0 °F 90% 29.97 in - Calm Calm - N/A   Unknown
4:53 AM 75.0 °F - 72.0 °F 90% 29.97 in - Calm Calm - N/A   Unknown
5:53 AM 75.0 °F - 72.0 °F 90% 29.96 in - Calm Calm - N/A   Unknown
6:53 AM 73.9 °F - 72.0 °F 93% 29.97 in - Calm Calm - N/A   Unknown
7:53 AM 77.0 °F - 73.0 °F 88% 29.98 in - Calm Calm - N/A   Unknown
8:53 AM 82.0 °F 88.6 °F 75.0 °F 79% 29.98 in - NW 3.5 mph - N/A   Unknown
9:53 AM 86.0 °F 95.1 °F 75.0 °F 70% 29.97 in - Calm Calm - N/A   Unknown
10:53 AM 89.1 °F 99.1 °F 75.0 °F 63% 29.99 in - Calm Calm - N/A   Unknown
11:53 AM 91.9 °F 103.9 °F 75.9 °F 59% 29.99 in - SE 4.6 mph - N/A   Unknown
12:53 PM 93.9 °F 105.4 °F 75.0 °F 54% 29.99 in - West 3.5 mph - N/A   Unknown
1:53 PM 91.0 °F 104.2 °F 77.0 °F 63% 29.97 in - SW 13.8 mph - N/A   Unknown
2:53 PM 75.9 °F - 72.0 °F 87% 30.00 in - East 10.4 mph 20.7 mph 0.95 in   Unknown
3:53 PM 75.9 °F - 72.0 °F 87% 29.96 in - SW 8.1 mph - 0.04 in   Unknown
4:53 PM 78.1 °F - 73.0 °F 84% 29.96 in - SW 5.8 mph - N/A   Unknown
5:53 PM 80.1 °F 85.4 °F 75.9 °F 87% 29.99 in - East 4.6 mph - N/A   Unknown
6:53 PM 80.1 °F 85.4 °F 75.9 °F 87% 29.99 in - Calm Calm - N/A   Unknown
7:53 PM 80.1 °F 85.1 °F 75.0 °F 85% 29.96 in - WNW 4.6 mph - N/A   Unknown
8:53 PM 80.1 °F 85.1 °F 75.0 °F 85% 29.96 in - East 4.6 mph - N/A   Unknown
9:53 PM 78.1 °F - 75.0 °F 90% 29.97 in - WNW 8.1 mph - N/A   Unknown
10:53 PM 77.0 °F - 73.0 °F 88% 29.98 in - East 4.6 mph - N/A   Unknown
11:53 PM 75.9 °F - 73.9 °F 94% 29.96 in - Calm Calm - N/A   Unknown